[[{"header":{"parameterUnit":"m.s-1","parameterCategory":2,"la1":30.2991,"la2":30.254,"lo1":-89.0895,"lo2":-89.0444,"dy":0.0017,"dx":0.0017,"nx":28,"ny":28,"refTime":"2025-07-13T09:00:00:Z","depth":"0","parameterNumber":2,"parameterNumberName":"U-component_of_CURRENTS"},"data":[0,0,0,0,0,0,0,0,0,0,0,0,0,0,0,0,0,0,0,0,0,0,0,0,0,0,0,0,0,0,0,0,0,0,0,0,0,0,0,0,0,0,0,0,0,0,0,0,0,0,0,0,0,0,0,0,0,0,0.4554,0.4555,0,0.4536,0.4536,0.4535,0.4517,0.4517,0.4517,0.4518,0.4595,0.4597,0.4598,0,0,0,0,0,0,0,0,0,0,0,0,0,0.4503,0.4504,0.4554,0.4555,0.4555,0.4537,0.4536,0.4535,0.4517,0.4517,0.4517,0.4518,0.4594,0.4596,0.4599,0,0,0,0,0,0,0,0,0,0,0,0,0,0.4505,0.4504,0.4554,0.4547,0.4546,0.4537,0.4536,0.4535,0.4517,0.4517,0.4517,0.4518,0.4593,0.4596,0.4599,0.4612,0,0,0.4608,0.4609,0,0,0,0,0,0,0,0,0.4505,0.4506,0.4548,0.4547,0.4547,0.4533,0.4546,0.4567,0.4517,0.4523,0.4518,0.4518,0.4586,0.4589,0.4578,0.4615,0.4619,0.4608,0.461,0.4611,0.4612,0,0,0,0,0,0,0,0.4505,0.4507,0.4543,0.4548,0.4547,0.4521,0.4521,0.4549,0.4552,0.4523,0.4523,0.4528,0.4586,0.4575,0.458,0.462,0.4608,0.461,0.4612,0.4613,0.4763,0.4765,0,0,0,0,0,0,0.452,0.4507,0.4543,0.4543,0.4531,0.4522,0.4522,0.4534,0.4549,0.4552,0.4527,0.4527,0.457,0.4576,0.4583,0.4655,0.4611,0.4614,0.4615,0.4761,0.4764,0.4766,0,0,0,0,0,0,0.4519,0.4523,0.4544,0.4527,0.4529,0.4524,0.4536,0.4533,0.4521,0.4553,0.4557,0.4519,0.457,0.4579,0.4622,0.4656,0.4615,0.4617,0.4758,0.4762,0.4765,0.4764,0,0,0,0,0,0,0.4517,0.4523,0.4531,0.4529,0.4531,0.4552,0.4536,0.4533,0.4527,0.4525,0.4547,0.4554,0.4571,0.4617,0.4625,0.4659,0.462,0.4755,0.476,0.4764,0.4762,0.4767,0.4772,0,0,0,0,0,0.4516,0.4526,0.4532,0.4536,0.4544,0.4553,0.4551,0.4544,0.4526,0.453,0.4548,0.4553,0.4651,0.4621,0.4629,0.4665,0.4753,0.4759,0.4764,0.4759,0.4766,0.4772,0,0,0,0,0,0,0.4498,0.4526,0.4532,0.4548,0.4559,0.4552,0.4553,0.4541,0.4551,0.4552,0.4568,0.4577,0.4644,0.4652,0.4619,0.4726,0.4709,0.4716,0.4703,0.471,0.4715,0.4676,0.4622,0,0,0,0,0,0.4503,0.4522,0.4541,0.4551,0.4562,0.4554,0.4553,0.4551,0.4561,0.4562,0.4576,0.4611,0.467,0.4684,0.4737,0.477,0.4794,0.4807,0.4813,0.4817,0.4794,0.487,0.4879,0.4783,0.4783,0.4783,0,0,0.4491,0.4515,0.4519,0.455,0.4554,0.4568,0.4553,0.4559,0.4567,0.4574,0.4589,0.4636,0.469,0.4749,0.4778,0.4754,0.4864,0.4823,0.4826,0.4801,0.4876,0.4885,0.4893,0.4786,0.4786,0.4785,0,0,0.449,0.4509,0.4529,0.4546,0.4571,0.4573,0.4576,0.4578,0.458,0.4605,0.4635,0.4685,0.4741,0.4786,0.4818,0.488,0.4905,0.4914,0.4886,0.4961,0.4968,0.4975,0.5034,0.5046,0.4897,0.4897,0.4897,0,0.447,0.4507,0.4532,0.4561,0.4565,0.4576,0.4585,0.4598,0.461,0.4609,0.4619,0.471,0.4759,0.4829,0.4859,0.489,0.493,0.4851,0.4964,0.4972,0.4978,0.5037,0.505,0.4898,0.4898,0.4897,0.4897,0,0.4492,0.4518,0.453,0.4572,0.4582,0.4591,0.4618,0.4625,0.4625,0.463,0.469,0.4752,0.4794,0.4842,0.4866,0.4947,0.4961,0.4976,0.4936,0.4987,0.5047,0.5061,0.4898,0.4898,0.4898,0.4898,0,0,0.4445,0.4526,0.4529,0.4539,0.4583,0.4582,0.4613,0.4627,0.4621,0.4664,0.4663,0.4778,0.4788,0.4827,0.4878,0.4933,0.5034,0.4964,0.4968,0.5,0.5195,0.5091,0.5096,0.5071,0.5073,0.5075,0.5221,0,0.4444,0.4492,0.4532,0.4545,0.4559,0.458,0.4595,0.4612,0.4627,0.4636,0.4705,0.4745,0.4794,0.4817,0.4886,0.4993,0.5067,0.4992,0.5157,0.5162,0.5045,0.5106,0.4841,0.4938,0.5234,0.5237,0.5238,0,0.4449,0.4479,0.4498,0.4518,0.4522,0.4528,0.4523,0.4545,0.4581,0.4593,0.4638,0.4685,0.4774,0.4813,0.5003,0.4953,0.5074,0.5157,0.5166,0.5066,0.5081,0.4935,0.4951,0.4759,0.5259,0.5257,0.5256,0,0.4392,0.4443,0.4448,0.4458,0.4493,0.4486,0.4497,0.452,0.4516,0.4565,0.4558,0.4668,0.4715,0.4875,0.5023,0.5034,0.5219,0.5262,0.529,0.5284,0.5084,0.5056,0.4904,0.5419,0.5419,0.5419,0.5418,0,0.4369,0.4368,0.4419,0.4416,0.4393,0.4437,0.4407,0.4433,0.4455,0.4442,0.4531,0.4546,0.4735,0.4846,0.5012,0.5159,0.5222,0.5283,0.5313,0.5079,0.505,0.4893,0.4836,0.5424,0.5423,0.5422,0.5421,0,0.4305,0.4348,0.4342,0.4368,0.4368,0.4348,0.4343,0.4326,0.4362,0.4352,0.4365,0.4466,0.4602,0.4772,0.5018,0.5119,0.5129,0.534,0.5032,0.5021,0.4848,0.4802,0.4641,0.4532,0.5399,0.5397,0.5395,0,0.4278,0.4274,0.4286,0.4268,0.4274,0.4256,0.4238,0.4272,0.4256,0.43,0.4291,0.44,0.4453,0.4723,0.4905,0.5133,0.5037,0.5035,0.5009,0.4779,0.4754,0.4649,0.4562,0.4769,0.4763,0.4757,0.4753,0,0.4204,0.4208,0.4205,0.4175,0.4151,0.4119,0.4105,0.4077,0.4116,0.4104,0.4129,0.4174,0.4384,0.4441,0.4684,0.4826,0.4717,0.4935,0.4776,0.4296,0.4092,0.4017,0.4735,0.4706,0.471,0.4714,0.4716,0.4718,0.4131,0.411,0.4101,0.4057,0.4024,0.3969,0.3886,0.3891,0.3844,0.3771,0.393,0.3886,0.4015,0.43,0.4419,0.4348,0.446,0.4252,0.424,0.4175,0.3955,0.4553,0.4502,0.4506,0.4509,0.4511,0.4514,0,0.4021,0.4011,0.3978,0.3906,0.3802,0.3832,0.3767,0.3653,0.3547,0.3546,0.353,0.3493,0.3522,0.3658,0.3713,0.364,0.36,0.3531,0.329,0.3269,0.3852,0.3702,0.3373,0.3374,0.3374,0.3374,0.3374,0.3374,0.3961,0.3895,0.3882,0.3691,0.3621,0.3415,0.3338,0.3227,0.3168,0.2969,0.2854,0.2891,0.3016,0.3063,0.2972,0.2967,0.2802,0.2665,0.2759,0.3103,0.3167,0.3229,0.3069,0.2614,0.2613,0.2016,0.201,0.2006]},{"header":{"parameterUnit":"m.s-1","parameterCategory":2,"la1":30.2991,"la2":30.254,"lo1":-89.0895,"lo2":-89.0444,"dy":0.0017,"dx":0.0017,"nx":28,"ny":28,"refTime":"2025-07-13T09:00:00:Z","depth":"0","parameterNumber":3,"parameterNumberName":"V-component_of_CURRENTS"},"data":[0,0,0,0,0,0,0,0,0,0,0,0,0,0,0,0,0,0,0,0,0,0,0,0,0,0,0,0,0,0,0,0,0,0,0,0,0,0,0,0,0,0,0,0,0,0,0,0,0,0,0,0,0,0,0,0,0,0,0.0246,0.0245,0,0.017,0.0169,0.0168,0.0105,0.0104,0.0103,0.0102,0.0031,0.003,0.0029,0,0,0,0,0,0,0,0,0,0,0,0,0,0.0316,0.0315,0.0246,0.0245,0.0244,0.017,0.0169,0.0168,0.0105,0.0104,0.0103,0.0102,0.0032,0.0031,0.0029,0,0,0,0,0,0,0,0,0,0,0,0,0,0.0269,0.0315,0.0246,0.0202,0.0197,0.017,0.0169,0.0168,0.0105,0.0104,0.0102,0.0101,0.0032,0.0031,0.0029,0.0044,0,0,0.0024,0.0023,0,0,0,0,0,0,0,0,0.0271,0.0266,0.0209,0.0205,0.0199,0.0144,0.0167,0.0126,0.0105,0.0142,0.0102,0.0101,0.007,0.0065,0.0055,0.0041,0.0037,0.0024,0.0023,0.0022,0.0022,0,0,0,0,0,0,0,0.0275,0.0269,0.0217,0.0208,0.0202,0.0179,0.0171,0.0159,0.0115,0.0138,0.0133,0.0123,0.0067,0.0057,0.0053,0.0036,0.0024,0.0022,0.0021,0.0021,0.0088,0.0091,0,0,0,0,0,0,0.0283,0.0272,0.022,0.0215,0.0231,0.0179,0.017,0.0164,0.0115,0.0105,0.0124,0.012,0.0061,0.0055,0.005,0.0102,0.0022,0.0021,0.002,0.0085,0.0089,0.0092,0,0,0,0,0,0,0.0285,0.028,0.0223,0.024,0.0231,0.0179,0.0173,0.0163,0.0149,0.0103,0.0094,0.0117,0.0059,0.0053,0.0061,0.0097,0.002,0.0018,0.0082,0.0087,0.009,0.0182,0,0,0,0,0,0,0.0288,0.0281,0.0283,0.0241,0.023,0.0208,0.0173,0.0163,0.0143,0.0138,0.0095,0.0087,0.0058,0.0064,0.006,0.0094,0.0017,0.0079,0.0084,0.0089,0.0175,0.0189,0.02,0,0,0,0,0,0.0291,0.0292,0.0284,0.0277,0.0234,0.0208,0.0201,0.016,0.0145,0.0142,0.0132,0.0088,0.0095,0.0065,0.0059,0.0093,0.0076,0.0083,0.0089,0.017,0.0186,0.02,0,0,0,0,0,0,0.0317,0.0285,0.0274,0.0265,0.0242,0.0197,0.0189,0.0167,0.0156,0.0154,0.0115,0.0108,0.0133,0.0108,0.0077,0.0134,0.0082,0.0087,0.0146,0.0161,0.0173,0.018,0.0016,0,0,0,0,0,0.0328,0.0324,0.029,0.0283,0.0274,0.0237,0.0223,0.0199,0.0179,0.0171,0.0147,0.0141,0.0157,0.0153,0.0152,0.0174,0.0151,0.0199,0.0211,0.0221,0.0227,0.0244,0.0257,0.0112,0.0112,0.0112,0,0,0.0334,0.0318,0.0313,0.0289,0.0268,0.0266,0.0225,0.0207,0.0218,0.0169,0.018,0.0178,0.0175,0.0207,0.0216,0.0187,0.0251,0.0229,0.0238,0.0238,0.0251,0.0265,0.0277,0.0117,0.0116,0.0115,0,0,0.0341,0.0334,0.0331,0.0322,0.0298,0.0285,0.0284,0.0251,0.0249,0.0262,0.025,0.0277,0.0267,0.0289,0.0298,0.0382,0.0318,0.0378,0.0438,0.0454,0.0466,0.0475,0.0455,0.0462,0.0381,0.0381,0.0381,0,0.0345,0.0344,0.0326,0.0326,0.0327,0.03,0.0305,0.0309,0.0286,0.0306,0.0276,0.0323,0.0314,0.0387,0.0418,0.0409,0.0388,0.0376,0.0468,0.0477,0.0486,0.0463,0.0469,0.0386,0.0385,0.0385,0.0384,0,0.035,0.0356,0.0356,0.0357,0.0361,0.036,0.0365,0.0378,0.0377,0.0381,0.0438,0.0441,0.0466,0.0483,0.0471,0.0545,0.05,0.0482,0.0423,0.0505,0.0476,0.0481,0.0393,0.0392,0.039,0.0389,0,0,0.0335,0.0354,0.0354,0.0371,0.0379,0.0382,0.0427,0.0458,0.0496,0.0501,0.0554,0.0603,0.0598,0.0611,0.0611,0.0633,0.0674,0.0582,0.058,0.0549,0.0678,0.0616,0.0614,0.0662,0.0663,0.0665,0.063,0,0.0339,0.0356,0.0369,0.0403,0.0416,0.0437,0.0483,0.052,0.0546,0.0593,0.0632,0.0674,0.0651,0.0667,0.0693,0.0685,0.0693,0.0683,0.0614,0.0612,0.0536,0.0621,0.0604,0.0569,0.0634,0.0635,0.0636,0,0.0336,0.0353,0.0381,0.0441,0.045,0.0474,0.055,0.0587,0.0663,0.0686,0.074,0.0751,0.0814,0.0768,0.0791,0.0779,0.0735,0.0717,0.0715,0.0628,0.0561,0.0502,0.0575,0.0432,0.0643,0.0642,0.0642,0,0.0332,0.0368,0.0397,0.0411,0.0468,0.0502,0.054,0.0613,0.0664,0.0743,0.0782,0.0839,0.087,0.0851,0.0816,0.0798,0.0814,0.0781,0.0682,0.0674,0.0634,0.062,0.0551,0.0783,0.0783,0.0783,0.0783,0,0.0335,0.036,0.0396,0.0412,0.0465,0.0506,0.0577,0.0626,0.0709,0.0791,0.0823,0.0897,0.0891,0.0899,0.0845,0.0784,0.0832,0.0707,0.0677,0.0664,0.0655,0.0504,0.0435,0.0782,0.0782,0.0783,0.0783,0,0.0329,0.0347,0.0385,0.0441,0.0461,0.0499,0.0587,0.065,0.0717,0.0824,0.0852,0.0942,0.0964,0.0928,0.0903,0.0819,0.0689,0.072,0.0688,0.0655,0.0414,0.0352,0.0268,0.0237,0.0607,0.0605,0.0604,0,0.0329,0.0343,0.0394,0.0421,0.0446,0.0506,0.0562,0.0642,0.072,0.0865,0.0929,0.0983,0.1063,0.099,0.0862,0.0746,0.0645,0.0605,0.0578,0.041,0.032,0.0288,0.0267,0.0555,0.0553,0.0552,0.0551,0,0.0335,0.0346,0.0377,0.0429,0.0479,0.0554,0.0641,0.0704,0.0826,0.0933,0.1087,0.1162,0.1097,0.1021,0.0832,0.0725,0.0506,0.0571,0.0429,0.0305,0.0238,0.019,0.0535,0.0539,0.0541,0.0541,0.0542,0.0542,0.0339,0.0357,0.0396,0.0452,0.0518,0.0628,0.0709,0.0827,0.0975,0.117,0.1206,0.1352,0.116,0.0932,0.0751,0.0366,0.0416,0.0251,0.0197,0.0184,0.0139,0.0436,0.0385,0.0385,0.0386,0.0386,0.0386,0,0.0351,0.0379,0.0426,0.0512,0.061,0.0644,0.079,0.0898,0.1097,0.1264,0.1407,0.139,0.113,0.0824,0.0323,0.0056,-0.0005,-0.0099,-0.0141,-0.0135,0.0152,0.0131,-0.0015,-0.0015,-0.0015,-0.0014,-0.0014,-0.0014,0.036,0.0402,0.0432,0.0586,0.0666,0.0816,0.0915,0.1069,0.1212,0.1414,0.1509,0.1561,0.1307,0.0431,-0.0165,-0.0297,-0.0437,-0.0492,-0.054,-0.0367,-0.0338,-0.0311,-0.0346,-0.059,-0.0591,-0.0783,-0.0785,-0.0787]}],[{"header":{"parameterUnit":"m.s-1","parameterCategory":2,"la1":30.2991,"la2":30.254,"lo1":-89.0895,"lo2":-89.0444,"dy":0.0017,"dx":0.0017,"nx":28,"ny":28,"refTime":"2025-07-13T09:00:00:Z","depth":"2","parameterNumber":2,"parameterNumberName":"U-component_of_CURRENTS"},"data":[0,0,0,0,0,0,0,0,0,0,0,0,0,0,0,0,0,0,0,0,0,0,0,0,0,0,0,0,0,0,0,0,0,0,0,0,0,0,0,0,0,0,0,0,0,0,0,0,0,0,0,0,0,0,0,0,0,0,0.2441,0.2444,0,0.2688,0.2691,0.2693,0.2868,0.2869,0.2871,0.2873,0.2916,0.2915,0.2915,0,0,0,0,0,0,0,0,0,0,0,0,0,0.2373,0.2371,0.2441,0.2444,0.2448,0.2688,0.2691,0.2694,0.2868,0.287,0.2872,0.2873,0.2916,0.2915,0.2915,0,0,0,0,0,0,0,0,0,0,0,0,0,0.2485,0.2371,0.2441,0.2566,0.258,0.2687,0.2691,0.2695,0.2867,0.287,0.2872,0.2874,0.2916,0.2915,0.2915,0.2861,0,0,0.2913,0.2912,0,0,0,0,0,0,0,0,0.2479,0.2487,0.2544,0.2557,0.2573,0.2752,0.2683,0.2741,0.2866,0.2755,0.2873,0.2876,0.2842,0.2848,0.2887,0.2863,0.2865,0.2913,0.2912,0.2912,0.2912,0,0,0,0,0,0,0,0.247,0.2479,0.2536,0.2547,0.2565,0.2697,0.2712,0.2697,0.2775,0.2765,0.2779,0.281,0.2849,0.2888,0.2889,0.2865,0.2913,0.2912,0.2912,0.2912,0.2944,0.2945,0,0,0,0,0,0,0.2429,0.247,0.2528,0.2544,0.2535,0.2695,0.2713,0.269,0.278,0.2799,0.2808,0.2817,0.2887,0.2889,0.2891,0.2916,0.2912,0.2911,0.2911,0.2942,0.2944,0.2945,0,0,0,0,0,0,0.2426,0.2429,0.2518,0.2519,0.254,0.2691,0.2666,0.2693,0.2792,0.2816,0.2831,0.2885,0.289,0.2892,0.2876,0.2916,0.2911,0.2911,0.2941,0.2943,0.2945,0.2912,0,0,0,0,0,0,0.2421,0.2425,0.2416,0.2513,0.2538,0.2549,0.2665,0.2697,0.2805,0.2822,0.2884,0.2889,0.2892,0.2876,0.2875,0.2915,0.291,0.2939,0.2942,0.2944,0.2911,0.2912,0.2913,0,0,0,0,0,0.2417,0.2364,0.2412,0.2423,0.2511,0.2547,0.257,0.2689,0.2806,0.28,0.2858,0.289,0.2894,0.2874,0.2873,0.2914,0.2938,0.2941,0.2944,0.2911,0.2912,0.2913,0,0,0,0,0,0,0.2354,0.2381,0.2435,0.2403,0.2465,0.2577,0.2596,0.2715,0.2771,0.281,0.2861,0.2863,0.2875,0.2893,0.2872,0.2937,0.294,0.2942,0.2915,0.2916,0.2917,0.2873,0.291,0,0,0,0,0,0.2327,0.2295,0.2358,0.2351,0.2356,0.2499,0.2551,0.2643,0.2707,0.2746,0.2832,0.289,0.2879,0.2894,0.2896,0.2903,0.2928,0.2948,0.2948,0.2949,0.2916,0.2992,0.2996,0.2954,0.2954,0.2954,0,0,0.233,0.2329,0.2331,0.2337,0.2397,0.2396,0.2533,0.2601,0.2643,0.2727,0.2825,0.288,0.2877,0.2887,0.2902,0.2912,0.2976,0.2952,0.2952,0.2918,0.2995,0.2999,0.3002,0.2956,0.2956,0.2956,0,0,0.2275,0.2278,0.2225,0.224,0.2305,0.2366,0.2391,0.2539,0.2622,0.2688,0.2774,0.2839,0.2885,0.2898,0.2891,0.2895,0.2966,0.2955,0.293,0.3006,0.3009,0.3012,0.3049,0.3055,0.297,0.297,0.297,0,0.2305,0.2218,0.2229,0.2175,0.2209,0.2344,0.2337,0.2395,0.2562,0.2631,0.2699,0.2853,0.2868,0.2859,0.2873,0.2893,0.295,0.2919,0.3004,0.3008,0.3012,0.3048,0.3056,0.2969,0.2969,0.2969,0.297,0,0.2178,0.2152,0.2115,0.2081,0.21,0.2119,0.2185,0.2277,0.2435,0.2547,0.2655,0.2715,0.2816,0.2855,0.2845,0.2908,0.2944,0.2984,0.2993,0.3013,0.3052,0.306,0.2967,0.2968,0.2968,0.2968,0,0,0.216,0.2062,0.2061,0.206,0.2071,0.2092,0.2107,0.2183,0.2272,0.243,0.2557,0.2578,0.273,0.2733,0.281,0.2875,0.2949,0.2952,0.2956,0.2969,0.3116,0.2965,0.296,0.3038,0.304,0.3041,0.3132,0,0.2099,0.2003,0.1964,0.1946,0.1916,0.2001,0.2018,0.2114,0.2239,0.2388,0.2485,0.261,0.2641,0.2755,0.2805,0.2942,0.2972,0.2919,0.3108,0.3111,0.296,0.2963,0.2717,0.2763,0.314,0.3142,0.3143,0,0.1973,0.1937,0.1896,0.1916,0.1915,0.1939,0.2048,0.2087,0.223,0.2344,0.2473,0.2597,0.2706,0.2756,0.2917,0.2907,0.2978,0.3058,0.3066,0.2929,0.2974,0.2806,0.2764,0.3157,0.3156,0.3155,0.3154,0,0.1949,0.1895,0.1887,0.1884,0.1905,0.1955,0.201,0.2123,0.2192,0.2362,0.2479,0.2608,0.2748,0.2851,0.2999,0.3,0.3182,0.3207,0.3102,0.3093,0.291,0.2881,0.326,0.326,0.326,0.326,0.3259,0,0.1874,0.1873,0.1898,0.1893,0.1944,0.197,0.2069,0.2137,0.2269,0.2368,0.2493,0.261,0.2794,0.2927,0.3015,0.308,0.3192,0.3064,0.3098,0.2891,0.286,0.3225,0.322,0.3263,0.3262,0.3262,0.3261,0,0.1855,0.1842,0.1852,0.1904,0.1927,0.199,0.2098,0.2162,0.229,0.2428,0.2497,0.2663,0.2854,0.2982,0.3176,0.3098,0.3185,0.3163,0.2878,0.2871,0.3035,0.3028,0.3045,0.3041,0.3036,0.3033,0.303,0,0.1831,0.1824,0.1891,0.1906,0.1945,0.2031,0.2079,0.2182,0.2249,0.2456,0.2519,0.2733,0.2857,0.3024,0.297,0.3023,0.3175,0.2766,0.2664,0.2977,0.3011,0.301,0.3008,0.2434,0.2426,0.242,0.2415,0,0.18,0.1853,0.1878,0.1925,0.1972,0.2025,0.2115,0.2158,0.2291,0.2426,0.2598,0.2716,0.2797,0.2717,0.2702,0.2698,0.2733,0.2634,0.3088,0.2499,0.24,0.2433,0.2452,0.2361,0.2366,0.237,0.2373,0.2375,0.181,0.1841,0.1878,0.1984,0.2006,0.2055,0.2072,0.2148,0.2266,0.2377,0.2528,0.2577,0.2482,0.2339,0.2298,0.2237,0.2396,0.2284,0.2304,0.2331,0.2216,0.2112,0.1997,0.2,0.2003,0.2006,0.2008,0,0.181,0.1883,0.1918,0.1979,0.2019,0.2064,0.2108,0.2084,0.219,0.223,0.2342,0.208,0.1985,0.1997,0.1761,0.1669,0.1677,0.1671,0.168,0.1732,0.1779,0.1639,0.1266,0.1265,0.1263,0.1262,0,0,0.1785,0.1824,0.1906,0.2016,0.207,0.2041,0.2067,0.2013,0.1988,0.1935,0.1881,0.1891,0.1883,0.1533,0.1456,0.1359,0.1563,0.1319,0.1903,0.1967,0.2013,0.2104,0.194,0,0,0,0,0]},{"header":{"parameterUnit":"m.s-1","parameterCategory":2,"la1":30.2991,"la2":30.254,"lo1":-89.0895,"lo2":-89.0444,"dy":0.0017,"dx":0.0017,"nx":28,"ny":28,"refTime":"2025-07-13T09:00:00:Z","depth":"2","parameterNumber":3,"parameterNumberName":"V-component_of_CURRENTS"},"data":[0,0,0,0,0,0,0,0,0,0,0,0,0,0,0,0,0,0,0,0,0,0,0,0,0,0,0,0,0,0,0,0,0,0,0,0,0,0,0,0,0,0,0,0,0,0,0,0,0,0,0,0,0,0,0,0,0,0,-0.0249,-0.025,0,-0.0292,-0.0293,-0.0293,-0.0314,-0.0314,-0.0314,-0.0314,-0.046,-0.0463,-0.0467,0,0,0,0,0,0,0,0,0,0,0,0,0,-0.0132,-0.0134,-0.0249,-0.025,-0.025,-0.0292,-0.0293,-0.0294,-0.0314,-0.0314,-0.0314,-0.0314,-0.0458,-0.0463,-0.0468,0,0,0,0,0,0,0,0,0,0,0,0,0,-0.018,-0.0135,-0.0249,-0.0265,-0.0267,-0.0292,-0.0293,-0.0294,-0.0314,-0.0314,-0.0314,-0.0314,-0.0457,-0.0463,-0.0468,-0.0507,0,0,-0.0486,-0.0489,0,0,0,0,0,0,0,0,-0.0178,-0.0185,-0.0262,-0.0264,-0.0266,-0.0297,-0.0305,-0.037,-0.0314,-0.0297,-0.0314,-0.0314,-0.0415,-0.0424,-0.0432,-0.0514,-0.052,-0.0487,-0.0491,-0.0493,-0.0495,0,0,0,0,0,0,0,-0.0174,-0.0183,-0.0267,-0.0263,-0.0265,-0.0252,-0.0259,-0.0317,-0.0358,-0.0298,-0.03,-0.0304,-0.0416,-0.0426,-0.0435,-0.0522,-0.0487,-0.0492,-0.0496,-0.0498,-0.0595,-0.0594,0,0,0,0,0,0,-0.0172,-0.018,-0.0265,-0.0268,-0.022,-0.0254,-0.0263,-0.0288,-0.0355,-0.0364,-0.0304,-0.0304,-0.0416,-0.0428,-0.0441,-0.0446,-0.0493,-0.0499,-0.0502,-0.0596,-0.0595,-0.0594,0,0,0,0,0,0,-0.0169,-0.018,-0.0264,-0.0223,-0.0233,-0.0257,-0.0285,-0.0289,-0.0291,-0.0358,-0.0369,-0.0301,-0.0416,-0.0433,-0.0483,-0.0454,-0.0501,-0.0507,-0.0597,-0.0596,-0.0594,-0.0486,0,0,0,0,0,0,-0.0166,-0.0179,-0.0183,-0.0224,-0.0235,-0.0275,-0.0285,-0.029,-0.0294,-0.0295,-0.036,-0.0373,-0.0417,-0.0473,-0.0489,-0.0463,-0.0511,-0.0598,-0.0596,-0.0595,-0.0491,-0.0481,-0.0473,0,0,0,0,0,-0.0162,-0.0175,-0.0184,-0.0193,-0.0245,-0.0274,-0.0279,-0.0295,-0.0293,-0.0295,-0.0335,-0.0371,-0.0472,-0.0478,-0.0496,-0.0471,-0.0599,-0.0597,-0.0595,-0.0495,-0.0483,-0.0473,0,0,0,0,0,0,-0.0117,-0.018,-0.019,-0.0218,-0.024,-0.0278,-0.028,-0.0288,-0.0318,-0.0319,-0.0376,-0.0393,-0.0422,-0.0466,-0.0471,-0.0492,-0.0535,-0.0536,-0.0453,-0.0442,-0.0433,-0.0389,-0.0516,0,0,0,0,0,-0.0111,-0.0142,-0.0187,-0.0204,-0.022,-0.0246,-0.0254,-0.0265,-0.03,-0.0311,-0.0349,-0.039,-0.0428,-0.045,-0.0496,-0.052,-0.0533,-0.051,-0.0501,-0.0493,-0.0468,-0.0452,-0.0439,-0.0586,-0.0586,-0.0587,0,0,-0.0095,-0.0132,-0.0147,-0.0196,-0.0217,-0.0225,-0.0251,-0.0266,-0.0252,-0.0327,-0.0324,-0.037,-0.043,-0.0447,-0.0462,-0.0479,-0.0461,-0.049,-0.0483,-0.0462,-0.0449,-0.0434,-0.0421,-0.0585,-0.0585,-0.0585,0,0,-0.0082,-0.0118,-0.0139,-0.0156,-0.0188,-0.0203,-0.0203,-0.0234,-0.0231,-0.0251,-0.0283,-0.0301,-0.0376,-0.0384,-0.0407,-0.0376,-0.0418,-0.0398,-0.0314,-0.0299,-0.0286,-0.0274,-0.0282,-0.0272,-0.0387,-0.0387,-0.0387,0,-0.0057,-0.0087,-0.0141,-0.0156,-0.0148,-0.0189,-0.0177,-0.0188,-0.0219,-0.0192,-0.0241,-0.0272,-0.0335,-0.0312,-0.0307,-0.0351,-0.0363,-0.035,-0.0284,-0.0273,-0.0263,-0.0274,-0.0264,-0.0381,-0.0382,-0.0383,-0.0383,0,-0.0063,-0.0068,-0.0079,-0.0109,-0.0109,-0.0108,-0.0126,-0.011,-0.0115,-0.0113,-0.0095,-0.0168,-0.0175,-0.0199,-0.0259,-0.0206,-0.0244,-0.0277,-0.0305,-0.0241,-0.0258,-0.025,-0.0374,-0.0376,-0.0377,-0.0379,0,0,-0.0051,-0.0077,-0.0077,-0.0051,-0.0074,-0.0067,-0.0036,-0.0001,0.006,0.0018,0.0097,0.002,0.0002,-0.0023,-0.0078,-0.0074,-0.004,-0.0145,-0.0147,-0.0141,-0.0021,-0.0087,-0.0086,-0.0063,-0.0061,-0.0059,-0.0064,0,-0.0028,-0.0023,-0.004,0.0011,0.0026,0.0033,0.0078,0.0112,0.013,0.0191,0.0155,0.0173,0.0062,0.0064,0.0053,-0.0007,-0.0013,-0.0037,-0.0094,-0.0095,-0.0151,-0.0076,-0.0094,-0.0102,-0.0056,-0.0055,-0.0054,0,-0.0021,-0.001,0.0028,0.0109,0.0119,0.0144,0.0254,0.0287,0.0355,0.0371,0.0393,0.0363,0.0367,0.0255,0.0201,0.0189,0.0092,0.0033,0.0031,-0.0057,-0.0145,-0.0158,-0.009,-0.0041,-0.0042,-0.0043,-0.0044,0,0.0027,0.0059,0.0105,0.0119,0.0175,0.0226,0.027,0.0346,0.0413,0.049,0.0549,0.054,0.054,0.045,0.0303,0.0258,0.0244,0.0167,0.002,0.0012,-0.0025,-0.0039,0.0133,0.0133,0.0133,0.0133,0.0133,0,0.0068,0.0114,0.0129,0.0155,0.0254,0.0276,0.0396,0.0449,0.054,0.0647,0.0633,0.0712,0.0587,0.0556,0.0396,0.0247,0.0312,0.0061,0.0023,0.0007,-0.0003,0.0028,0.0016,0.0133,0.0133,0.0133,0.0133,0,0.0116,0.0114,0.0183,0.0245,0.027,0.034,0.0451,0.055,0.0618,0.0761,0.0791,0.0849,0.0818,0.0685,0.0556,0.0368,0.0233,0.0151,0.0128,0.0088,-0.0039,-0.0046,-0.0001,-0.0003,-0.0004,-0.0006,-0.0007,0,0.0139,0.0169,0.0238,0.0285,0.0309,0.0402,0.0485,0.0571,0.0677,0.0848,0.0933,0.0967,0.1009,0.081,0.0519,0.0269,0.0245,0.0056,-0.0043,-0.0003,-0.0044,-0.0048,-0.0053,-0.0056,-0.0058,-0.0059,-0.006,0,0.0207,0.0219,0.0271,0.0348,0.0426,0.054,0.0653,0.0742,0.0873,0.1,0.1169,0.1223,0.1045,0.0801,0.0448,0.0269,0.0096,0.0017,0.0119,-0.0032,-0.0059,-0.0099,-0.01,-0.0071,-0.007,-0.0069,-0.0068,-0.0068,0.0261,0.0309,0.0358,0.0436,0.0529,0.0667,0.0777,0.0917,0.109,0.1254,0.1292,0.1321,0.1032,0.0559,0.0309,0.0021,0.0007,-0.0143,-0.0136,-0.013,-0.0147,-0.0177,-0.0215,-0.0215,-0.0215,-0.0214,-0.0214,0,0.0347,0.0376,0.0449,0.0562,0.0679,0.071,0.0891,0.1005,0.1213,0.1287,0.1386,0.1097,0.0835,0.0555,0.0083,-0.0198,-0.0189,-0.0244,-0.0197,-0.0187,-0.0178,-0.0195,-0.0277,-0.0278,-0.0278,-0.0278,0,0,0.0397,0.047,0.0489,0.0658,0.0748,0.0915,0.102,0.1172,0.1243,0.1315,0.1269,0.1173,0.083,0.0465,0.0142,-0.0071,-0.0058,-0.0096,-0.0033,0.0066,0.008,-0.0122,-0.0139,0,0,0,0,0]}],[{"header":{"parameterUnit":"m.s-1","parameterCategory":2,"la1":30.2991,"la2":30.254,"lo1":-89.0895,"lo2":-89.0444,"dy":0.0017,"dx":0.0017,"nx":28,"ny":28,"refTime":"2025-07-13T09:00:00:Z","depth":"4","parameterNumber":2,"parameterNumberName":"U-component_of_CURRENTS"},"data":[0,0,0,0,0,0,0,0,0,0,0,0,0,0,0,0,0,0,0,0,0,0,0,0,0,0,0,0,0,0,0,0,0,0,0,0,0,0,0,0,0,0,0,0,0,0,0,0,0,0,0,0,0,0,0,0,0,0,0.0027,0.0027,0,0.0108,0.0109,0.0111,0.023,0.0231,0.0232,0.0233,0.0314,0.0315,0.0316,0,0,0,0,0,0,0,0,0,0,0,0,0,0.0003,0.0004,0.0027,0.0027,0.0027,0.0107,0.0109,0.0111,0.0229,0.0231,0.0233,0.0234,0.0314,0.0315,0.0316,0,0,0,0,0,0,0,0,0,0,0,0,0,0.0049,0.0004,0.0027,0.009,0.0096,0.0107,0.0109,0.0112,0.0229,0.0231,0.0233,0.0235,0.0313,0.0315,0.0316,0.0285,0,0,0.032,0.0321,0,0,0,0,0,0,0,0,0.0047,0.0051,0.008,0.0085,0.0092,0.0153,0.013,0.0167,0.0229,0.0187,0.0233,0.0236,0.0253,0.026,0.0282,0.0289,0.0292,0.032,0.0321,0.0322,0.0322,0,0,0,0,0,0,0,0.0043,0.0049,0.0067,0.008,0.0087,0.0123,0.0133,0.0138,0.0215,0.0191,0.0198,0.0193,0.0258,0.0281,0.0285,0.0294,0.032,0.0322,0.0322,0.0323,0.0414,0.0416,0,0,0,0,0,0,0.0013,0.0045,0.0065,0.0069,0.0064,0.0121,0.0132,0.0138,0.0215,0.0226,0.0191,0.0198,0.0278,0.0283,0.0288,0.0395,0.0322,0.0323,0.0324,0.0413,0.0415,0.0416,0,0,0,0,0,0,0.0012,0.0014,0.0061,0.0052,0.0059,0.0118,0.0125,0.0139,0.0225,0.0213,0.0227,0.0269,0.0279,0.0286,0.0355,0.0394,0.0324,0.0325,0.0411,0.0413,0.0415,0.0519,0,0,0,0,0,0,0.0011,0.0014,0.0024,0.005,0.0058,0.0103,0.0123,0.0139,0.021,0.0222,0.0282,0.0289,0.0281,0.0353,0.0356,0.0394,0.0326,0.0409,0.0412,0.0415,0.0514,0.0525,0.0534,0,0,0,0,0,0.0011,0.0017,0.0024,0.0027,0.0065,0.0103,0.0114,0.0166,0.0213,0.0254,0.0307,0.029,0.0373,0.0356,0.0359,0.0399,0.0407,0.0411,0.0414,0.0509,0.0523,0.0534,0,0,0,0,0,0,0.0018,0.0029,0.0038,0.005,0.0085,0.0121,0.0151,0.0201,0.0277,0.0314,0.0319,0.0329,0.0398,0.0384,0.0364,0.0432,0.0383,0.0388,0.0454,0.0467,0.0477,0.0489,0.0327,0,0,0,0,0,0.0015,0.0026,0.0046,0.006,0.0076,0.0128,0.0158,0.0213,0.0266,0.0308,0.0352,0.0387,0.0402,0.0429,0.0442,0.0486,0.0459,0.0509,0.0519,0.0528,0.054,0.0535,0.0546,0.0428,0.0428,0.0428,0,0,0.0013,0.0025,0.0028,0.0062,0.0092,0.0135,0.0157,0.023,0.0306,0.0298,0.0427,0.0433,0.0422,0.0475,0.0502,0.0479,0.0548,0.0533,0.0541,0.0547,0.054,0.0552,0.0562,0.0431,0.043,0.043,0,0,0.0014,0.0035,0.0045,0.008,0.0137,0.0179,0.0215,0.0299,0.0379,0.0476,0.0485,0.0528,0.0572,0.0574,0.0572,0.0645,0.0602,0.0647,0.0715,0.0711,0.0721,0.0729,0.0709,0.0714,0.0653,0.0653,0.0653,0,0.0016,0.0033,0.0057,0.0087,0.0135,0.0207,0.0268,0.0341,0.0455,0.0523,0.0535,0.0616,0.0614,0.0653,0.0679,0.067,0.0654,0.067,0.0725,0.0732,0.0739,0.0716,0.0721,0.0659,0.0658,0.0657,0.0657,0,0.0027,0.0052,0.0068,0.013,0.0195,0.0261,0.0357,0.0465,0.0567,0.063,0.0737,0.0739,0.0779,0.0778,0.0753,0.0799,0.0767,0.0737,0.0694,0.0757,0.0729,0.0732,0.0666,0.0664,0.0663,0.0661,0,0,0.0008,0.0062,0.0071,0.0122,0.0242,0.0305,0.0442,0.0575,0.068,0.0775,0.0884,0.0907,0.092,0.0916,0.0892,0.0889,0.0916,0.0843,0.084,0.0825,0.0902,0.0788,0.0779,0.0899,0.09,0.0901,0.0863,0,0.0018,0.0066,0.0119,0.0225,0.0276,0.0403,0.0525,0.067,0.0785,0.0903,0.0935,0.1006,0.0967,0.0989,0.0986,0.0936,0.093,0.0928,0.0842,0.0839,0.0731,0.0781,0.0905,0.0865,0.0865,0.0866,0.0866,0,0.0023,0.0064,0.015,0.0298,0.034,0.0448,0.068,0.0792,0.0953,0.1033,0.1105,0.1123,0.1152,0.1098,0.1062,0.1065,0.1,0.0949,0.0946,0.0805,0.073,0.0788,0.0871,0.087,0.087,0.087,0.0869,0,0.0011,0.0103,0.0186,0.0231,0.0398,0.0529,0.0663,0.0857,0.0966,0.1118,0.1172,0.1223,0.1238,0.1191,0.1071,0.109,0.0989,0.0999,0.0833,0.0823,0.0891,0.0882,0.0967,0.0967,0.0967,0.0967,0.0967,0,0.0017,0.0075,0.02,0.0247,0.042,0.0559,0.0762,0.0893,0.1057,0.1127,0.1231,0.1208,0.1261,0.1195,0.1103,0.0952,0.1011,0.0854,0.0812,0.0934,0.0931,0.0892,0.0884,0.0966,0.0966,0.0966,0.0967,0,-0.0011,0.0044,0.0138,0.0324,0.0413,0.0554,0.0814,0.0921,0.1079,0.1163,0.1203,0.1237,0.114,0.1127,0.1024,0.0972,0.0847,0.0761,0.0874,0.0836,0.0695,0.0693,0.066,0.0656,0.0652,0.0649,0.0647,0,-0.0022,0.0016,0.0181,0.0271,0.0379,0.0592,0.0729,0.093,0.0993,0.1084,0.1063,0.1059,0.1041,0.0844,0.0801,0.0701,0.0655,0.0657,0.0725,0.0704,0.0667,0.067,0.0673,0.0641,0.064,0.0639,0.0638,0,-0.0035,0.0013,0.0089,0.025,0.0412,0.055,0.0731,0.0757,0.0906,0.1037,0.095,0.092,0.0805,0.0728,0.0672,0.0557,0.072,0.0621,0.063,0.0694,0.068,0.0648,0.0654,0.0626,0.0628,0.0629,0.063,0,-0.0043,-0.0003,0.0087,0.0237,0.0387,0.046,0.0573,0.0642,0.0731,0.0841,0.0738,0.0705,0.0738,0.0632,0.0498,0.0478,0.0498,0.0546,0.056,0.0574,0.0556,0.0527,0.0397,0,0,0,0,0,-0.0038,-0.0011,0.0085,0.0216,0.0334,0.0414,0.0538,0.0616,0.0707,0.0653,0.0739,0.0613,0.0534,0.0452,0.0411,0.0398,0.046,0.0347,0.0514,0.0557,0.0571,0.0555,0,0,0,0,0,0,-0.0038,0.0032,0.0045,0.014,0.021,0.033,0.0379,0.0446,0.0423,0.0521,0.0452,0.0591,0.047,0.0548,0.0395,0.0388,0.0489,0.0352,0.0352,0.0549,0.0562,0.0573,0.0562,0,0,0,0,0]},{"header":{"parameterUnit":"m.s-1","parameterCategory":2,"la1":30.2991,"la2":30.254,"lo1":-89.0895,"lo2":-89.0444,"dy":0.0017,"dx":0.0017,"nx":28,"ny":28,"refTime":"2025-07-13T09:00:00:Z","depth":"4","parameterNumber":3,"parameterNumberName":"V-component_of_CURRENTS"},"data":[0,0,0,0,0,0,0,0,0,0,0,0,0,0,0,0,0,0,0,0,0,0,0,0,0,0,0,0,0,0,0,0,0,0,0,0,0,0,0,0,0,0,0,0,0,0,0,0,0,0,0,0,0,0,0,0,0,0,0.0499,0.05,0,0.0554,0.0554,0.0555,0.0565,0.0565,0.0565,0.0565,0.0367,0.0362,0.0357,0,0,0,0,0,0,0,0,0,0,0,0,0,0.045,0.045,0.0499,0.05,0.0501,0.0554,0.0554,0.0555,0.0565,0.0565,0.0565,0.0565,0.0368,0.0362,0.0356,0,0,0,0,0,0,0,0,0,0,0,0,0,0.0482,0.045,0.0499,0.0515,0.0517,0.0554,0.0554,0.0555,0.0565,0.0565,0.0565,0.0564,0.037,0.0363,0.0355,0.0314,0,0,0.0332,0.0329,0,0,0,0,0,0,0,0,0.048,0.0483,0.0511,0.0514,0.0516,0.0555,0.0465,0.0463,0.0565,0.0544,0.0565,0.0564,0.0408,0.0398,0.0408,0.0304,0.0296,0.0331,0.0327,0.0323,0.0321,0,0,0,0,0,0,0,0.0477,0.0481,0.0518,0.0512,0.0515,0.0535,0.0539,0.0466,0.047,0.0546,0.0547,0.0558,0.0407,0.0416,0.0403,0.0293,0.0332,0.0325,0.032,0.0317,0.0074,0.0072,0,0,0,0,0,0,0.0474,0.0479,0.0516,0.052,0.05,0.0536,0.054,0.054,0.0476,0.0469,0.0558,0.0558,0.0429,0.0412,0.0395,0.0289,0.0323,0.0316,0.0312,0.0076,0.0074,0.0072,0,0,0,0,0,0,0.0473,0.0477,0.0514,0.0503,0.051,0.0537,0.0538,0.0542,0.0557,0.0489,0.0476,0.0571,0.0428,0.0406,0.0325,0.0283,0.0313,0.0306,0.0078,0.0075,0.0073,0.0109,0,0,0,0,0,0,0.0471,0.0475,0.0486,0.0503,0.0511,0.0547,0.0539,0.0543,0.0565,0.0566,0.0495,0.0477,0.0426,0.0337,0.0317,0.0273,0.03,0.0081,0.0077,0.0074,0.011,0.0108,0.0106,0,0,0,0,0,0.0469,0.0482,0.0486,0.0492,0.052,0.0548,0.0554,0.057,0.0566,0.0581,0.0517,0.048,0.03,0.033,0.0307,0.026,0.0082,0.0078,0.0074,0.0111,0.0108,0.0106,0,0,0,0,0,0,0.0471,0.0485,0.049,0.0508,0.0532,0.0551,0.0576,0.0576,0.0547,0.0542,0.0464,0.0441,0.0351,0.0301,0.0336,0.0177,0.0181,0.0172,0.0216,0.0213,0.0211,0.0213,0.0294,0,0,0,0,0,0.0475,0.049,0.0506,0.0527,0.054,0.0557,0.0574,0.0586,0.0563,0.0554,0.0481,0.0399,0.0316,0.0266,0.0192,0.011,0.0073,0.006,0.0057,0.0056,0.0041,-0.0042,-0.0053,0.0058,0.0058,0.0058,0,0,0.0487,0.0497,0.0508,0.053,0.0552,0.0569,0.0567,0.0603,0.0594,0.0528,0.0467,0.0392,0.0294,0.0204,0.0157,0.0156,0.001,0.0051,0.0051,0.0035,-0.0048,-0.0058,-0.0068,0.0055,0.0056,0.0056,0,0,0.0511,0.0523,0.054,0.0558,0.0593,0.06,0.0609,0.0611,0.0591,0.0532,0.0471,0.0375,0.0252,0.0171,0.0115,0.0052,0.0007,0.0021,0.0002,-0.0077,-0.0087,-0.0095,-0.0123,-0.0135,0.0014,0.0014,0.0014,0,0.0522,0.0536,0.0554,0.0572,0.0588,0.0609,0.0626,0.0614,0.0577,0.0521,0.0512,0.0299,0.023,0.0097,0.0076,0.0045,0.0012,0.0028,-0.0078,-0.0087,-0.0097,-0.0124,-0.0137,0.0015,0.0015,0.0015,0.0015,0,0.055,0.0565,0.0581,0.06,0.0622,0.0647,0.0638,0.0612,0.0573,0.0524,0.0384,0.0285,0.015,0.0111,0.0072,-0.0048,-0.0042,-0.006,-0.006,-0.0105,-0.0131,-0.0145,0.0017,0.0016,0.0016,0.0016,0,0,0.0552,0.0588,0.0595,0.0602,0.0636,0.0653,0.0628,0.0582,0.0529,0.0447,0.0339,0.0194,0.0126,0.0057,-0.0012,-0.0085,-0.0162,-0.0101,-0.0105,-0.0109,-0.0306,-0.0228,-0.0236,-0.0197,-0.02,-0.0203,-0.0283,0,0.0562,0.0594,0.0609,0.0634,0.0645,0.0644,0.0613,0.0572,0.0501,0.0396,0.0269,0.0158,0.0113,0.0049,-0.0041,-0.0146,-0.0205,-0.0137,-0.028,-0.0284,-0.0195,-0.0253,-0.0213,-0.0293,-0.0297,-0.0299,-0.0301,0,0.0571,0.0589,0.0623,0.0621,0.0625,0.0649,0.0593,0.0563,0.0433,0.0364,0.0227,0.0135,-0.0014,-0.002,-0.0225,-0.018,-0.0241,-0.0303,-0.0307,-0.0264,-0.0235,-0.0253,-0.0327,-0.0325,-0.0323,-0.0322,-0.032,0,0.0553,0.0586,0.0612,0.0624,0.0635,0.0635,0.0631,0.0547,0.0504,0.0356,0.0298,0.01,0.0016,-0.0124,-0.0256,-0.0248,-0.0447,-0.045,-0.0433,-0.0425,-0.0483,-0.0473,-0.0572,-0.0572,-0.0572,-0.0572,-0.0572,0,0.0537,0.0551,0.0618,0.0629,0.0646,0.065,0.0631,0.0576,0.0501,0.0419,0.0294,0.0174,-0.0014,-0.0153,-0.0269,-0.0396,-0.0461,-0.045,-0.0458,-0.0461,-0.0449,-0.049,-0.048,-0.0575,-0.0574,-0.0574,-0.0573,0,0.0506,0.0548,0.0573,0.0616,0.0645,0.0658,0.0693,0.0652,0.0589,0.0485,0.0449,0.0234,0.0045,-0.0102,-0.0326,-0.0385,-0.0521,-0.0534,-0.0498,-0.0499,-0.0438,-0.0425,-0.0541,-0.0539,-0.0537,-0.0536,-0.0535,0,0.0488,0.051,0.0589,0.0631,0.0668,0.0709,0.0727,0.0699,0.0642,0.0486,0.0404,0.0243,0.009,-0.0165,-0.0323,-0.0485,-0.0493,-0.0532,-0.052,-0.0447,-0.0444,-0.0433,-0.0422,-0.0533,-0.0533,-0.0532,-0.0532,0,0.0457,0.0503,0.0529,0.0627,0.0687,0.072,0.0729,0.0681,0.0592,0.0583,0.0361,0.0221,0.0029,-0.0182,-0.0259,-0.0401,-0.0507,-0.0517,-0.0521,-0.051,-0.0439,-0.0435,-0.0426,-0.0527,-0.0528,-0.0528,-0.0528,0,0.0437,0.0458,0.053,0.0593,0.07,0.0696,0.0677,0.061,0.0566,0.0407,0.0319,0.0126,0.002,-0.0141,-0.0271,-0.0337,-0.0359,-0.0378,-0.039,-0.0397,-0.032,-0.0206,-0.0247,0,0,0,0,0,0.0423,0.0445,0.05,0.0552,0.066,0.0732,0.0678,0.0626,0.054,0.0411,0.0379,0.02,0.0014,-0.0125,-0.0178,-0.025,-0.0375,-0.0313,-0.0404,-0.0499,-0.0505,-0.0432,0,0,0,0,0,0,0.0409,0.0468,0.0474,0.0545,0.061,0.0687,0.0666,0.0571,0.0466,0.0385,0.0263,0.0265,0.0056,0.0103,-0.0137,-0.0168,-0.0224,-0.0384,-0.0385,-0.0496,-0.0501,-0.0506,-0.0432,0,0,0,0,0]}]]